Location: Balaclava NSW 2575, Australia
(34.4510°S, 150.4953°E)
Time: 04:40:06
(UTC+10:00)

Tiangong - Visible Passes

Search period start: 02 August 2021 00:00
Search period end: 12 August 2021 00:00
Orbit: 373 x 386 km, 41.5° (Epoch: 01 August)

Date Brightness Start Highest point End Pass type
(mag) Time Alt. Az. Time Alt. Az. Time Alt. Az.
02 Aug 1.0 18:28:38 10° WNW 18:31:46 76° NNE 18:32:44 40° ESE visible
03 Aug 2.5 19:04:16 10° W 19:06:38 33° SW 19:06:38 33° SW visible
04 Aug 1.3 18:02:42 10° WNW 18:05:51 62° SSW 18:08:20 15° ESE visible
04 Aug 4.5 19:40:18 10° WSW 19:40:27 11° WSW 19:40:27 11° WSW visible
05 Aug 2.5 18:38:35 10° WSW 18:41:24 28° SSW 18:42:06 26° SSE visible
06 Aug 3.6 19:14:33 10° SW 19:15:49 17° SW 19:15:49 17° SW visible
07 Aug 2.8 18:12:52 10° WSW 18:15:31 24° S 18:17:25 15° SE visible
08 Aug 2.8 18:48:38 10° SW 18:51:06 22° S 18:51:06 22° S visible
09 Aug 2.8 17:47:01 10° SW 17:49:36 22° S 17:52:10 10° SE visible
09 Aug 3.8 19:23:57 10° SW 19:24:47 16° SW 19:24:47 16° SW visible
10 Aug 2.5 18:22:33 10° SW 18:25:16 25° S 18:26:24 20° SE visible
11 Aug 2.0 18:57:43 10° SW 19:00:11 39° SSW 19:00:11 39° SSW visible
